DW9665 Sarajevo BA current weather conditions

sailwx.info

Wind from 315 at 0 knots gusting 1

Air temperature 10.0° C
Dewpoint 7.2° C

Last reported at 2016-May-01 08:47 UTC.
Time now 2016-May-01 09:52 UTC

Location: N 43°50' E 018°21'.
View on Google Maps.

See reports from other nearby stations

  
Tides and Currents Weather Stations Pressure Air Temp Water Temp Dewpoint Dewpoint Depression Visibility Wind Speed Wind Dir Waves Ship Positions
date/time (UTC)wind fromknots sea level pressurealtimeterstation pressurevisibilityair tempwater tempwave heightnotes
2016-May-01 08:47 315 0 gusting 1 10.0
2016-May-01 08:32 112 9.4
2016-May-01 08:17 180 9.4
2016-May-01 08:02 180 1 gusting 3 9.4
2016-May-01 07:47 270 3 gusting 2 8.9
2016-May-01 07:32 068 0 gusting 2 8.9
2016-May-01 07:17 292 8.9
2016-May-01 07:02 180 8.3
2016-May-01 06:47 180 2 gusting 2 8.3
2016-May-01 06:32 180 1 gusting 1 8.3
2016-May-01 06:17 180 8.3
2016-May-01 06:02 022 8.3
2016-May-01 05:47 180 0 gusting 2 8.3
2016-May-01 05:32 292 1 gusting 1 8.3
2016-May-01 05:17 180 8.3
2016-May-01 05:02 180 8.3
2016-May-01 04:47 158 7.8
2016-May-01 04:32 158 7.8
2016-May-01 04:17 158 7.8
2016-May-01 04:02 158 7.2
2016-May-01 03:47 180 0 gusting 1 7.8
2016-May-01 03:32 270 7.8
2016-May-01 03:17 180 7.8
2016-May-01 03:02 270 0 gusting 1 7.8
2016-May-01 02:47 180 0 gusting 1 7.8
2016-May-01 02:32 338 7.8
2016-May-01 02:17 180 0 gusting 0 7.8
2016-May-01 02:02 180 7.8
2016-May-01 01:47 180 7.8
2016-May-01 01:32 180 8.3
2016-May-01 01:17 270 0 gusting 0 8.3
2016-May-01 01:02 180 8.3
2016-May-01 00:47 180 0 gusting 1 8.3
2016-May-01 00:32 180 8.3
2016-May-01 00:17 180 0 gusting 2 8.9
2016-May-01 00:02 180 0 gusting 2 8.9
2016-Apr-30 23:47 180 8.9
2016-Apr-30 23:32 180 9.4
2016-Apr-30 23:17 180 1 gusting 2 9.4
2016-Apr-30 23:02 180 1 gusting 2 9.4
2016-Apr-30 22:47 180 1 gusting 2 10.0
2016-Apr-30 22:32 180 0 gusting 1 10.0
2016-Apr-30 22:17 180 10.6
2016-Apr-30 22:02 180 1 gusting 2 10.6
2016-Apr-30 21:47 270 0 gusting 2 10.6
2016-Apr-30 21:32 180 11.1
2016-Apr-30 21:17 180 0 gusting 2 11.1
2016-Apr-30 21:02 270 1 gusting 4 11.7
2016-Apr-30 20:47 270 2 gusting 4 11.7
2016-Apr-30 20:32 270 1 gusting 4 11.7
2016-Apr-30 20:17 11.7
2016-Apr-30 20:02 292 12.2
2016-Apr-30 19:47 292 0 gusting 5 12.2
2016-Apr-30 19:32 270 3 gusting 5 12.8
2016-Apr-30 19:17 270 2 gusting 6 13.3
2016-Apr-30 19:02 270 2 gusting 6 13.3
2016-Apr-30 18:47 270 3 gusting 8 13.9
2016-Apr-30 18:32 292 6 gusting 10 14.4
2016-Apr-30 18:17 022 3 gusting 9 14.4
2016-Apr-30 18:02 270 3 gusting 9 15.0
2016-Apr-30 17:47 292 3 gusting 6 15.6
2016-Apr-30 17:32 338 5 gusting 7 16.1
2016-Apr-30 17:17 270 5 gusting 11 16.7
2016-Apr-30 17:02 292 3 gusting 9 17.2
2016-Apr-30 16:47 338 6 gusting 10 17.8
2016-Apr-30 16:32 18.3
2016-Apr-30 16:17 180 6 gusting 10 18.3
2016-Apr-30 16:02 315 2 gusting 7 18.9
2016-Apr-30 15:47 19.4
2016-Apr-30 15:32 270 3 gusting 5 19.4
2016-Apr-30 15:17 338 1 gusting 6 20.0
2016-Apr-30 15:02 20.0
2016-Apr-30 14:47 090 2 gusting 7 20.0
2016-Apr-30 14:32 338 4 gusting 7 20.0
2016-Apr-30 14:17 045 2 gusting 6 20.0
2016-Apr-30 14:02 270 5 gusting 6 19.4
2016-Apr-30 13:47 338 3 gusting 5 20.0
2016-Apr-30 13:32 022 0 gusting 6 20.0
2016-Apr-30 13:17 158 0 gusting 4 20.0
2016-Apr-30 12:47 270 1 gusting 5 19.4
2016-Apr-30 12:32 270 2 gusting 7 18.3
2016-Apr-30 12:17 270 3 gusting 7 17.8
2016-Apr-30 12:02 292 3 gusting 6 18.3
2016-Apr-30 11:47 270 5 gusting 8 17.8
2016-Apr-30 11:32 270 3 gusting 6 17.2
2016-Apr-30 11:17 180 2 gusting 6 16.7
2016-Apr-30 11:02 270 3 gusting 5 16.7
2016-Apr-30 10:47 270 1 gusting 5 16.1
2016-Apr-30 10:32 292 0 gusting 5 15.6
2016-Apr-30 10:17 180 1 gusting 3 16.1
2016-Apr-30 10:02 338 1 gusting 3 15.6
2016-Apr-30 09:47 022 15.0
2016-Apr-30 09:32 338 1 gusting 4 15.0
2016-Apr-30 09:17 315 0 gusting 5 14.4
2016-Apr-30 09:02 158 0 gusting 4 14.4
2016-Apr-30 08:47 068 0 gusting 3 13.9
2016-Apr-30 08:32 180 13.9
2016-Apr-30 08:17 270 1 gusting 4 12.8
2016-Apr-30 08:02 270 1 gusting 4 12.2
2016-Apr-30 07:47 338 1 gusting 3 11.7
2016-Apr-30 07:32 022 11.7
2016-Apr-30 07:17 292 1 gusting 3 10.6
2016-Apr-30 07:02 180 0 gusting 3 10.0
2016-Apr-30 06:47 270 2 gusting 3 9.4
2016-Apr-30 06:32 270 1 gusting 3 9.4
2016-Apr-30 06:17 315 0 gusting 2 9.4
2016-Apr-30 06:02 270 0 gusting 3 8.9
2016-Apr-30 05:47 180 1 gusting 1 8.9
2016-Apr-30 05:32 180 8.9
2016-Apr-30 05:17 292 8.3
2016-Apr-30 05:02 270 8.3
2016-Apr-30 04:47 270 0 gusting 2 8.3
2016-Apr-30 04:32 292 8.3
2016-Apr-30 04:17 292 8.9
2016-Apr-30 04:02 292 0 gusting 3 8.3
2016-Apr-30 03:47 180 8.9
2016-Apr-30 03:32 270 1 gusting 2 8.3
2016-Apr-30 03:17 292 8.9
2016-Apr-30 03:02 292 1 gusting 2 8.9
2016-Apr-30 02:47 270 0 gusting 1 8.9
2016-Apr-30 02:32 270 8.9
2016-Apr-30 02:17 270 8.9
2016-Apr-30 02:02 270 1 gusting 2 8.9
2016-Apr-30 01:47 270 1 gusting 1 8.9
2016-Apr-30 01:32 135 0 8.9
2016-Apr-30 01:17 180 8.9
2016-Apr-30 01:02 270 8.3
2016-Apr-30 00:47 180 0 gusting 1 8.9
2016-Apr-30 00:32 270 0 gusting 2 8.3
2016-Apr-30 00:17 180 2 gusting 2 8.3
2016-Apr-30 00:02 270 8.9
2016-Apr-29 23:47 315 8.9
2016-Apr-29 23:32 270 2 gusting 4 8.9
2016-Apr-29 23:17 292 0 gusting 3 8.9
2016-Apr-29 23:02 270 1 gusting 4 8.9
2016-Apr-29 22:47 270 1 gusting 3 8.9
2016-Apr-29 22:32 270 0 gusting 1 8.9
2016-Apr-29 22:17 292 8.9
2016-Apr-29 22:02 270 1 gusting 3 8.9
2016-Apr-29 21:47 270 1 gusting 5 8.9
2016-Apr-29 21:32 270 2 gusting 5 8.9
2016-Apr-29 21:17 292 1 gusting 2 9.4
2016-Apr-29 21:02 292 9.4
2016-Apr-29 20:47 270 3 gusting 5 9.4
2016-Apr-29 20:32 270 1 gusting 5 9.4
2016-Apr-29 20:17 270 1 gusting 3 9.4
2016-Apr-29 20:02 292 0 gusting 3 9.4
2016-Apr-29 19:47 180 9.4
2016-Apr-29 19:32 270 2 gusting 5 9.4
2016-Apr-29 19:17 292 0 gusting 4 9.4
2016-Apr-29 19:02 292 0 gusting 5 9.4
2016-Apr-29 18:47 270 1 gusting 4 9.4
2016-Apr-29 18:32 180 1 gusting 5 10.0
2016-Apr-29 18:17 270 2 gusting 4 10.0
2016-Apr-29 18:02 270 1 gusting 4 10.0
2016-Apr-29 17:47 270 1 gusting 2 10.0
2016-Apr-29 17:32 270 10.0
2016-Apr-29 17:17 270 1 gusting 3 10.0
2016-Apr-29 17:02 292 1 gusting 3 10.0
2016-Apr-29 16:47 270 10.6
2016-Apr-29 16:32 270 2 gusting 3 10.6
2016-Apr-29 16:17 180 0 gusting 4 10.6
2016-Apr-29 16:02 338 0 gusting 4 10.6
2016-Apr-29 15:47 292 1 gusting 5 10.6
2016-Apr-29 15:32 270 1 gusting 5 10.6
2016-Apr-29 15:17 292 4 gusting 6 10.6
2016-Apr-29 15:02 270 1 gusting 3 10.6
2016-Apr-29 14:47 292 3 gusting 5 10.6
2016-Apr-29 14:32 270 1 gusting 4 10.6
2016-Apr-29 14:17 292 2 gusting 4 10.6
2016-Apr-29 14:02 315 2 gusting 6 10.6
2016-Apr-29 13:47 270 2 gusting 5 10.0
2016-Apr-29 13:32 270 4 gusting 6 10.0
2016-Apr-29 13:17 270 2 gusting 6 10.0
2016-Apr-29 13:02 292 2 gusting 8 10.0
2016-Apr-29 12:47 270 3 gusting 7 10.0
2016-Apr-29 12:32 270 6 gusting 9 10.0
2016-Apr-29 12:17 270 2 gusting 9 10.0
2016-Apr-29 12:02 270 2 gusting 5 10.0
2016-Apr-29 11:47 292 4 gusting 6 10.0
2016-Apr-29 11:32 338 0 gusting 6 9.4
2016-Apr-29 11:17 270 2 gusting 5 10.0
2016-Apr-29 11:02 068 10.0
2016-Apr-29 10:47 270 0 gusting 5 9.4
2016-Apr-29 10:32 338 2 gusting 5 8.9
2016-Apr-29 10:17 338 0 gusting 4 9.4
2016-Apr-29 10:02 180 9.4
2016-Apr-29 09:47 8.9
2016-Apr-29 09:32 270 3 gusting 5 8.9
2016-Apr-29 09:17 338 1 gusting 3 8.9
2016-Apr-29 09:02 180 8.9